Adrian, MI

4:11 PM EDT on May 23, 2017 (GMT -0400)
Lenawee County

Weather History for KADG - November, 2012

Change the Weather History Date:

Saturday, November 24, 2012

  Actual Average Record
Temperature  
Mean Temperature 30 °F -  
Max Temperature 33 °F 42 °F 63 °F (2001)
Min Temperature 28 °F 27 °F 0 °F (1950)
Degree Days  
Heating Degree Days 34    
Moisture  
Dew Point 19 °F    
Average Humidity 62    
Maximum Humidity 75    
Minimum Humidity 56    
Precipitation  
Precipitation 0.00 in - - ()
Sea Level Pressure  
Sea Level Pressure 30.13 in    
Wind  
Wind Speed 11 mph (NW)    
Max Wind Speed 17 mph    
Max Gust Speed 28 mph    
Visibility 10 miles    
Events Snow    
Averages and records for this station are not official NWS values.
T = Trace of Precipitation, MM = Missing Value Source: NWS Daily Summary

Daily Weather History Graph

Daily Weather History Graph

Search for Another Location

Airport or City:

Trip Planner

Search our weather history database for the weather conditions in past years. The results will help you decide how hot, cold, wet, or windy it might be!

Date:

Astronomy

Nov. 24, 2012 Rise Set
Actual Time 7:37 AM EST 5:08 PM EST
Civil Twilight 7:06 AM EST 5:39 PM EST
Nautical Twilight 6:32 AM EST 6:13 PM EST
Astronomical Twilight 5:58 AM EST 6:47 PM EST
Moon 2:55 PM EST (11/24) 3:50 AM EST (11/24)
Length of Visible Light 10h 32m
Length of Day
9h 31m
Waxing Gibbous, 87% of the Moon is Illuminated
Nov 24
Waxing Gibbous
Nov 28
Full
Dec 6
Last Quarter
Dec 13
New
Dec 20
First Quarter

Hourly Weather History & Observations

Time (EST) Temp. Windchill Dew Point Humidity Pressure Visibility Wind Dir Wind Speed Gust Speed Precip Events Conditions
12:53 AM 33.1 °F 23.9 °F 19.9 °F 59% 30.08 in 10.0 mi NNW 12.7 mph 26.5 mph N/A   Overcast
1:53 AM 32.0 °F 22.5 °F 19.9 °F 61% 30.09 in 10.0 mi NNW 12.7 mph 18.4 mph N/A   Overcast
2:53 AM 30.9 °F 22.2 °F 19.9 °F 64% 30.09 in 10.0 mi NW 10.4 mph 19.6 mph N/A   Overcast
3:53 AM 30.9 °F 20.2 °F 19.0 °F 61% 30.10 in 10.0 mi NW 15.0 mph 21.9 mph N/A   Overcast
4:53 AM 30.9 °F 19.8 °F 18.0 °F 59% 30.10 in 10.0 mi NW 16.1 mph 27.6 mph N/A   Overcast
5:53 AM 30.9 °F 21.2 °F 18.0 °F 59% 30.12 in 10.0 mi NNW 12.7 mph 24.2 mph N/A   Overcast
6:53 AM 30.9 °F 19.4 °F 19.0 °F 61% 30.13 in 10.0 mi NW 17.3 mph 23.0 mph N/A   Overcast
7:53 AM 30.0 °F 21.7 °F 19.0 °F 64% 30.14 in 10.0 mi NNW 9.2 mph - N/A   Overcast
8:53 AM 30.0 °F 23.2 °F 21.9 °F 72% 30.16 in 9.0 mi NNW 6.9 mph - 0.00 in Snow Light Snow
9:20 AM 30.2 °F 21.9 °F 19.4 °F 64% 30.13 in 10.0 mi NNW 9.2 mph - 0.00 in   Overcast
9:53 AM 30.9 °F 21.7 °F 18.0 °F 59% 30.17 in 10.0 mi NNW 11.5 mph - 0.00 in   Overcast
10:53 AM 30.9 °F 23.5 °F 18.0 °F 59% 30.17 in 10.0 mi NNW 8.1 mph 17.3 mph N/A   Overcast
11:53 AM 30.9 °F 24.3 °F 19.0 °F 61% 30.16 in 10.0 mi NW 6.9 mph - N/A   Overcast
12:53 PM 30.9 °F 22.2 °F 19.9 °F 64% 30.15 in 10.0 mi NNW 10.4 mph - N/A   Overcast
1:53 PM 32.0 °F 22.5 °F 19.9 °F 61% 30.14 in 10.0 mi WNW 12.7 mph - N/A   Overcast
2:53 PM 32.0 °F 23.0 °F 18.0 °F 56% 30.14 in 10.0 mi WNW 11.5 mph - N/A   Overcast
3:53 PM 32.0 °F 24.2 °F 19.0 °F 59% 30.14 in 10.0 mi NW 9.2 mph - N/A   Overcast
4:53 PM 30.9 °F 20.7 °F 19.0 °F 61% 30.14 in 10.0 mi WNW 13.8 mph - N/A   Overcast
5:53 PM 30.9 °F 21.7 °F 19.0 °F 61% 30.14 in 10.0 mi NW 11.5 mph - N/A   Overcast
6:53 PM 30.9 °F 22.2 °F 19.0 °F 61% 30.14 in 10.0 mi NW 10.4 mph - N/A   Overcast
7:53 PM 30.0 °F 22.4 °F 19.0 °F 64% 30.14 in 10.0 mi NW 8.1 mph - N/A   Overcast
8:53 PM 30.0 °F 23.2 °F 19.0 °F 64% 30.12 in 10.0 mi NW 6.9 mph - N/A   Overcast
9:39 PM 30.2 °F - 19.4 °F 64% 30.07 in 10.0 mi Calm Calm - N/A   Overcast
9:53 PM 30.0 °F 24.1 °F 19.0 °F 64% 30.09 in 10.0 mi West 5.8 mph - N/A   Overcast
10:53 PM 28.9 °F 23.9 °F 19.0 °F 67% 30.10 in 10.0 mi West 4.6 mph - N/A   Overcast
11:53 PM 28.9 °F 20.4 °F 21.9 °F 75% 30.10 in 10.0 mi West 9.2 mph - N/A   Overcast